Location: McFarlands Corners
(41.4117°N, 81.3382°W)
Time: 13:33:37
(UTC+00:00)

Tiros 1 despin weight - Pass Details

Date: 18 February 2026
Orbit: 556 x 593 km, 48.2° (Epoch: 11 March)

Event Time Altitude Azimuth Distance (km) Brightness Sun altitude
Rises 20:11:42 0° 236° (WSW) 2,739 ? 26.6°
Reaches altitude 10° 20:13:57 10° 235° (SW) 1,841 ? 26.3°
Maximum altitude 20:18:09 79° 151° (SSE) 571 ? 25.8°
Drops below altitude 10° 20:22:20 10° 63° (ENE) 1,838 ? 25.2°
Sets 20:24:35 0° 63° (ENE) 2,734 ? 24.9°
